[[{"header":{"parameterUnit":"m.s-1","parameterCategory":1,"la1":30.2991,"la2":30.254,"lo1":-89.0895,"lo2":-89.0444,"dy":0.0017,"dx":0.0017,"nx":28,"ny":28,"refTime":"2023-11-03T03:00:00:Z","depth":0,"parameterNumber":2,"parameterNumberName":"U-component_of_WINDS"},"data":[0,0,0,0,0,0,0,0,0,0,0,0,0,0,0,0,0,0,0,0,0,0,0,0,0,0,0,0,0,0,0,0,0,0,0,0,0,0,0,0,0,0,0,0,0,0,0,0,0,0,0,0,0,0,0,0,0,0,-2.8824,-2.8826,0,-2.9009,-2.9011,-2.9013,-2.8973,-2.8969,-2.8966,-2.8963,-2.9157,-2.9165,-2.9174,0,0,0,0,0,0,0,0,0,0,0,0,0,-2.8439,-2.8446,-2.8823,-2.8826,-2.8828,-2.9009,-2.9011,-2.9014,-2.8973,-2.8969,-2.8965,-2.8961,-2.9154,-2.9164,-2.9174,0,0,0,0,0,0,0,0,0,0,0,0,0,-2.8614,-2.8449,-2.8823,-2.883,-2.8832,-2.9008,-2.9011,-2.9014,-2.8974,-2.8969,-2.8964,-2.8959,-2.9151,-2.9163,-2.9176,-2.9358,0,0,-2.9214,-2.922,0,0,0,0,0,0,0,0,-2.8604,-2.8628,-2.8826,-2.8829,-2.8832,-2.8962,-2.8947,-2.913,-2.8976,-2.892,-2.8962,-2.8956,-2.9097,-2.9114,-2.916,-2.9368,-2.9376,-2.9216,-2.9223,-2.9229,-2.9232,0,0,0,0,0,0,0,-2.8592,-2.862,-2.8897,-2.8829,-2.8833,-2.8825,-2.8844,-2.8982,-2.9036,-2.8925,-2.8922,-2.8945,-2.9098,-2.9148,-2.9164,-2.9379,-2.9215,-2.9226,-2.9234,-2.9239,-2.9748,-2.9753,0,0,0,0,0,0,-2.8576,-2.861,-2.8891,-2.8902,-2.8703,-2.8836,-2.8857,-2.8926,-2.9034,-2.9046,-2.8949,-2.8942,-2.9129,-2.915,-2.9171,-2.9394,-2.9229,-2.924,-2.9248,-2.9742,-2.9749,-2.9755,0,0,0,0,0,0,-2.8568,-2.8602,-2.8884,-2.8756,-2.8791,-2.8848,-2.8926,-2.8932,-2.8983,-2.9052,-2.9062,-2.899,-2.9126,-2.9153,-2.9312,-2.94,-2.9246,-2.9258,-2.9735,-2.9744,-2.9752,-2.9839,0,0,0,0,0,0,-2.8557,-2.8599,-2.8668,-2.8757,-2.8798,-2.9021,-2.8931,-2.894,-2.9004,-2.8997,-2.9094,-2.9105,-2.9124,-2.9294,-2.9325,-2.9414,-2.9267,-2.9727,-2.9739,-2.9749,-2.9829,-2.985,-2.9868,0,0,0,0,0,-2.8544,-2.8685,-2.8671,-2.8706,-2.8885,-2.9025,-2.9049,-2.9066,-2.9011,-2.9082,-2.9127,-2.9102,-2.9385,-2.931,-2.9345,-2.944,-2.9722,-2.9736,-2.9749,-2.982,-2.9846,-2.9867,0,0,0,0,0,0,-2.8606,-2.8697,-2.8683,-2.8857,-2.8934,-2.9018,-2.9108,-2.9093,-2.9188,-2.9177,-2.9197,-2.9219,-2.9381,-2.9426,-2.9342,-2.9623,-2.9546,-2.9567,-2.9588,-2.9613,-2.9632,-2.9619,-2.9278,0,0,0,0,0,-2.864,-2.8745,-2.8819,-2.8966,-2.9005,-2.905,-2.9112,-2.9119,-2.92,-2.9232,-2.9289,-2.937,-2.9477,-2.9547,-2.9649,-2.9834,-2.9856,-2.9917,-2.9936,-2.9952,-2.9971,-3.0074,-3.0102,-2.9799,-2.9799,-2.9799,0,0,-2.8711,-2.8774,-2.8839,-2.8981,-2.9041,-2.9151,-2.9078,-2.9197,-2.928,-2.9251,-2.9405,-2.9449,-2.9541,-2.9714,-2.9793,-2.9756,-3.0059,-2.9969,-2.9981,-2.9991,-3.009,-3.0119,-3.0145,-2.9808,-2.9807,-2.9805,0,0,-2.8898,-2.8955,-2.9084,-2.9146,-2.9237,-2.9266,-2.9298,-2.9385,-2.9413,-2.9567,-2.9548,-2.9648,-2.9831,-2.9898,-2.9956,-3.0169,-3.015,-3.0202,-3.0305,-3.0405,-3.0429,-3.045,-3.0528,-3.0556,-3.022,-3.022,-3.022,0,-2.8975,-2.9139,-2.9153,-2.9275,-2.9339,-2.9316,-2.9449,-2.9508,-2.9629,-2.9675,-2.9631,-2.9862,-2.9922,-3.0112,-3.0164,-3.0211,-3.0249,-3.0191,-3.0424,-3.0446,-3.0466,-3.054,-3.0569,-3.0226,-3.0225,-3.0224,-3.0224,0,-2.9231,-2.9345,-2.9439,-2.9555,-2.9629,-2.9756,-2.9791,-2.9865,-2.9865,-2.99,-3.0058,-3.0129,-3.0246,-3.0291,-3.0294,-3.0482,-3.0457,-3.0419,-3.0342,-3.05,-3.0571,-3.0599,-3.0234,-3.0232,-3.023,-3.0229,0,0,-2.9463,-2.9585,-2.9619,-2.9673,-2.9772,-2.9862,-2.9988,-3.0102,-3.0165,-3.025,-3.0358,-3.0514,-3.048,-3.0546,-3.0555,-3.0643,-3.081,-3.0595,-3.0597,-3.0634,-3.1025,-3.1054,-3.1086,-3.0797,-3.0803,-3.0807,-3.1017,0,-2.966,-2.9881,-2.9897,-3.0098,-3.0205,-3.0185,-3.0296,-3.037,-3.0406,-3.0503,-3.0542,-3.0654,-3.0599,-3.0639,-3.0725,-3.0771,-3.0889,-3.0756,-3.09,-3.0905,-3.0879,-3.1123,-3.1154,-3.1348,-3.1045,-3.1049,-3.1053,0,-2.9919,-3.001,-3.0221,-3.0307,-3.0352,-3.0451,-3.0557,-3.065,-3.0734,-3.0754,-3.0828,-3.0826,-3.0958,-3.0875,-3.1059,-3.0968,-3.1028,-3.106,-3.1068,-3.1083,-3.099,-3.1146,-3.1411,-3.1441,-3.1096,-3.1093,-3.1089,0,-3.0069,-3.0244,-3.0394,-3.044,-3.0543,-3.0613,-3.066,-3.0739,-3.0807,-3.09,-3.0944,-3.1052,-3.1112,-3.1196,-3.1224,-3.1161,-3.1408,-3.1327,-3.143,-3.143,-3.1484,-3.148,-3.1763,-3.152,-3.152,-3.1519,-3.1518,0,-3.0288,-3.0418,-3.0462,-3.0554,-3.07,-3.0719,-3.0864,-3.0907,-3.0977,-3.1079,-3.1069,-3.1165,-3.1195,-3.1297,-3.132,-3.1469,-3.1496,-3.1517,-3.1522,-3.1519,-3.1517,-3.156,-3.1548,-3.1527,-3.1525,-3.1524,-3.1522,0,-3.048,-3.0515,-3.0677,-3.0761,-3.0786,-3.089,-3.0963,-3.1053,-3.1086,-3.1215,-3.1246,-3.13,-3.142,-3.1455,-3.1599,-3.1615,-3.1791,-3.1783,-3.1762,-3.1763,-3.1865,-3.1855,-3.2186,-3.2232,-3.1957,-3.196,-3.1962,0,-3.0619,-3.0718,-3.0813,-3.088,-3.0929,-3.1037,-3.1105,-3.1128,-3.12,-3.1305,-3.1383,-3.15,-3.1595,-3.1788,-3.1841,-3.1951,-3.1947,-3.2055,-3.1964,-3.1958,-3.1951,-3.1945,-3.1956,-3.2073,-3.2076,-3.2078,-3.208,0,-3.0861,-3.0873,-3.0972,-3.1077,-3.1159,-3.1244,-3.1325,-3.138,-3.1415,-3.1497,-3.1619,-3.1693,-3.1839,-3.1957,-3.207,-3.212,-3.2108,-3.2108,-3.2139,-3.2137,-3.2122,-3.2133,-3.1811,-3.2101,-3.2099,-3.2097,-3.2096,-3.2096,-3.1032,-3.112,-3.1201,-3.1312,-3.1375,-3.1451,-3.154,-3.1585,-3.1685,-3.1806,-3.1813,-3.1945,-3.2029,-3.2179,-3.2235,-3.234,-3.2308,-3.2351,-3.2363,-3.2373,-3.2383,-3.2104,-3.236,-3.236,-3.2359,-3.2359,-3.2358,0,-3.1275,-3.1326,-3.1427,-3.1541,-3.1629,-3.1607,-3.1696,-3.1772,-3.1887,-3.1966,-3.206,-3.22,-3.2314,-3.2377,-3.2491,-3.2563,-3.2561,-3.2593,-3.2589,-3.2601,-3.2403,-3.2366,-3.2593,-3.2593,-3.2593,-3.2593,-3.2593,-3.2593,-3.1412,-3.156,-3.1583,-3.1763,-3.1814,-3.1942,-3.1995,-3.2066,-3.2129,-3.2285,-3.238,-3.2419,-3.2492,-3.2612,-3.2717,-3.2732,-3.2776,-3.2812,-3.2824,-3.2639,-3.2615,-3.2592,-3.2557,-3.2821,-3.2821,-3.3013,-3.3015,-3.3016]},{"header":{"parameterUnit":"m.s-1","parameterCategory":1,"la1":30.2991,"la2":30.254,"lo1":-89.0895,"lo2":-89.0444,"dy":0.0017,"dx":0.0017,"nx":28,"ny":28,"refTime":"2023-11-03T03:00:00:Z","depth":0,"parameterNumber":3,"parameterNumberName":"V-component_of_WINDS"},"data":[0,0,0,0,0,0,0,0,0,0,0,0,0,0,0,0,0,0,0,0,0,0,0,0,0,0,0,0,0,0,0,0,0,0,0,0,0,0,0,0,0,0,0,0,0,0,0,0,0,0,0,0,0,0,0,0,0,0,-3.2325,-3.2325,0,-3.2345,-3.2345,-3.2346,-3.2312,-3.231,-3.2309,-3.2308,-3.2328,-3.233,-3.2331,0,0,0,0,0,0,0,0,0,0,0,0,0,-3.2254,-3.2255,-3.2325,-3.2325,-3.2325,-3.2345,-3.2345,-3.2346,-3.2312,-3.231,-3.2309,-3.2308,-3.2328,-3.2329,-3.2331,0,0,0,0,0,0,0,0,0,0,0,0,0,-3.2281,-3.2256,-3.2325,-3.2311,-3.231,-3.2345,-3.2345,-3.2346,-3.2312,-3.231,-3.2309,-3.2307,-3.2327,-3.2329,-3.2332,-3.2381,0,0,-3.2339,-3.234,0,0,0,0,0,0,0,0,-3.2279,-3.2283,-3.2313,-3.2312,-3.2311,-3.2324,-3.2328,-3.2358,-3.2313,-3.2311,-3.2308,-3.2306,-3.2328,-3.233,-3.2338,-3.2382,-3.2383,-3.2339,-3.2341,-3.2342,-3.2342,0,0,0,0,0,0,0,-3.2277,-3.2282,-3.2333,-3.2313,-3.2312,-3.2303,-3.2305,-3.2333,-3.2329,-3.2311,-3.2309,-3.2312,-3.2327,-3.2336,-3.2338,-3.2383,-3.2339,-3.2341,-3.2343,-3.2344,-3.2466,-3.2468,0,0,0,0,0,0,-3.2277,-3.2281,-3.2332,-3.2333,-3.229,-3.2305,-3.2307,-3.2321,-3.2329,-3.2328,-3.2313,-3.231,-3.2332,-3.2335,-3.2339,-3.2395,-3.2342,-3.2344,-3.2345,-3.2464,-3.2467,-3.2469,0,0,0,0,0,0,-3.2276,-3.2282,-3.2331,-3.2306,-3.2312,-3.2308,-3.2324,-3.2323,-3.2331,-3.233,-3.2329,-3.2323,-3.2331,-3.2335,-3.237,-3.2395,-3.2345,-3.2347,-3.2462,-3.2465,-3.2468,-3.2509,0,0,0,0,0,0,-3.2274,-3.2282,-3.2302,-3.2307,-3.2313,-3.2363,-3.2326,-3.2324,-3.2336,-3.2332,-3.2339,-3.2338,-3.233,-3.2367,-3.2373,-3.2398,-3.2349,-3.246,-3.2463,-3.2467,-3.2505,-3.2513,-3.2519,0,0,0,0,0,-3.2272,-3.2313,-3.2303,-3.2309,-3.2338,-3.2365,-3.2368,-3.2358,-3.2338,-3.2357,-3.2356,-3.2338,-3.2392,-3.2371,-3.2377,-3.2403,-3.2458,-3.2462,-3.2466,-3.2502,-3.2511,-3.2519,0,0,0,0,0,0,-3.2311,-3.2314,-3.2302,-3.2347,-3.2356,-3.2359,-3.2383,-3.2369,-3.2384,-3.238,-3.2366,-3.2368,-3.2405,-3.2408,-3.2384,-3.245,-3.2421,-3.2427,-3.2447,-3.2455,-3.2462,-3.246,-3.2351,0,0,0,0,0,-3.2325,-3.2347,-3.2348,-3.2387,-3.2392,-3.2387,-3.2398,-3.239,-3.2398,-3.2402,-3.2404,-3.2412,-3.2431,-3.2444,-3.2461,-3.2506,-3.2506,-3.2527,-3.2534,-3.254,-3.2544,-3.2565,-3.2574,-3.2482,-3.2482,-3.2482,0,0,-3.2353,-3.2357,-3.2372,-3.2395,-3.2401,-3.2423,-3.239,-3.2416,-3.2432,-3.2406,-3.2438,-3.244,-3.2449,-3.2488,-3.2506,-3.2491,-3.2569,-3.2545,-3.2549,-3.255,-3.257,-3.2579,-3.2587,-3.2485,-3.2484,-3.2484,0,0,-3.2416,-3.2423,-3.2454,-3.2461,-3.247,-3.2466,-3.2474,-3.2479,-3.2479,-3.2511,-3.2491,-3.251,-3.2543,-3.2549,-3.2557,-3.262,-3.2604,-3.2626,-3.2662,-3.2683,-3.269,-3.2696,-3.2716,-3.2724,-3.2631,-3.2631,-3.2631,0,-3.245,-3.2484,-3.2473,-3.2499,-3.2508,-3.2486,-3.2516,-3.2523,-3.2538,-3.2544,-3.2528,-3.2567,-3.2572,-3.2612,-3.2627,-3.2635,-3.2641,-3.2625,-3.269,-3.2696,-3.2702,-3.2721,-3.2729,-3.2634,-3.2633,-3.2633,-3.2633,0,-3.2524,-3.2547,-3.2572,-3.2585,-3.2597,-3.2626,-3.2618,-3.2632,-3.2622,-3.2619,-3.2651,-3.2656,-3.2672,-3.2681,-3.2673,-3.2719,-3.271,-3.2692,-3.2663,-3.2713,-3.2731,-3.2738,-3.2637,-3.2636,-3.2635,-3.2635,0,0,-3.2612,-3.2618,-3.2627,-3.2632,-3.264,-3.2657,-3.2684,-3.27,-3.271,-3.2721,-3.2742,-3.277,-3.2753,-3.2761,-3.2753,-3.2771,-3.2818,-3.2751,-3.2751,-3.2761,-3.2867,-3.2878,-3.2887,-3.2808,-3.2809,-3.281,-3.2865,0,-3.2673,-3.2719,-3.2709,-3.2753,-3.2773,-3.2751,-3.2774,-3.2781,-3.2779,-3.2794,-3.2792,-3.2811,-3.2789,-3.2793,-3.2811,-3.2809,-3.2839,-3.2805,-3.2825,-3.2826,-3.2822,-3.2897,-3.2909,-3.2961,-3.2872,-3.2874,-3.2874,0,-3.275,-3.2762,-3.2808,-3.281,-3.2818,-3.2839,-3.2852,-3.2868,-3.2874,-3.2871,-3.288,-3.2867,-3.2892,-3.2864,-3.2897,-3.2874,-3.2882,-3.2882,-3.2884,-3.2884,-3.2852,-3.2897,-3.2978,-3.2984,-3.2886,-3.2885,-3.2884,0,-3.2806,-3.2835,-3.2865,-3.287,-3.2874,-3.2889,-3.2891,-3.2896,-3.2906,-3.2917,-3.2922,-3.2936,-3.2944,-3.2954,-3.2945,-3.2926,-3.2979,-3.295,-3.2975,-3.2976,-3.2986,-3.2985,-3.3067,-3.2995,-3.2995,-3.2995,-3.2995,0,-3.2874,-3.2902,-3.289,-3.2909,-3.2939,-3.2927,-3.2958,-3.2958,-3.2962,-3.2979,-3.2962,-3.2978,-3.2966,-3.2981,-3.2975,-3.3002,-3.3006,-3.3003,-3.3,-3.3003,-3.3003,-3.3007,-3.3002,-3.2997,-3.2996,-3.2996,-3.2996,0,-3.2941,-3.2935,-3.2966,-3.2967,-3.2968,-3.299,-3.299,-3.3007,-3.3003,-3.3025,-3.303,-3.3024,-3.304,-3.3033,-3.3051,-3.3046,-3.308,-3.3074,-3.3078,-3.3075,-3.31,-3.3097,-3.3185,-3.3195,-3.3119,-3.3119,-3.312,0,-3.2984,-3.3005,-3.3007,-3.3018,-3.3021,-3.3038,-3.3047,-3.3035,-3.3045,-3.3053,-3.3069,-3.3084,-3.3095,-3.3123,-3.312,-3.3133,-3.3125,-3.3156,-3.3127,-3.3129,-3.3123,-3.3121,-3.3122,-3.3161,-3.3162,-3.3162,-3.3163,0,-3.3059,-3.3054,-3.3068,-3.308,-3.3091,-3.31,-3.3108,-3.3117,-3.3106,-3.3118,-3.3134,-3.3143,-3.3161,-3.3175,-3.3186,-3.3188,-3.3173,-3.3172,-3.3178,-3.318,-3.318,-3.3178,-3.3091,-3.317,-3.3169,-3.3169,-3.3168,-3.3168,-3.3114,-3.313,-3.3134,-3.3149,-3.3153,-3.316,-3.3175,-3.3173,-3.3186,-3.3199,-3.3192,-3.3211,-3.3215,-3.3228,-3.3232,-3.3246,-3.3234,-3.3243,-3.3245,-3.3247,-3.3249,-3.318,-3.3248,-3.3248,-3.3248,-3.3247,-3.3247,0,-3.3185,-3.3186,-3.3201,-3.3211,-3.3222,-3.3208,-3.3215,-3.3225,-3.3242,-3.3247,-3.3258,-3.3276,-3.329,-3.3288,-3.33,-3.3311,-3.3305,-3.3315,-3.3313,-3.3313,-3.326,-3.3253,-3.332,-3.332,-3.332,-3.332,-3.332,-3.332,-3.3224,-3.3251,-3.3246,-3.3274,-3.3275,-3.3292,-3.3297,-3.3303,-3.3307,-3.3327,-3.3339,-3.3337,-3.3338,-3.335,-3.3362,-3.3361,-3.3365,-3.3377,-3.3373,-3.3324,-3.3317,-3.331,-3.3302,-3.3379,-3.3379,-3.3424,-3.3425,-3.3425]}]]